USA 56

Satellite information

Favourite Embed

Satellite Type and Status

PAYLOADIN ORBIT

Key statistics

Satellite USA 56 at a glance.

Uptime

12815

Days in orbit

Revolutions

≈ 14.8

Per day

Orbit

LEO

Low Earth Orbit

Inclination

89.9

Latest

Satellite identification and parameters

Extended collection of information and parameters for USA 56.

Object identification

Identified? True

Debris? False

Object name: USA 56

International designator: 1990-031A

Object number (NORAD): 20560

Object ID (CCSDS): 20560

Country: UNITED STATES OF AMERICA (US)

Current information (Y/N): Y

RCS size: MEDIUM

Orbital parameters

Period: 97.514 minutes

Inclination: 89.8502 deg

SMA: 7017.862 km

Apoapsis: 681.463 km

Periapsis: 597.991 km

RAAN: 268.3241 deg

Eccentricy: 0.0059471

Argument of periapsis: 258.1331 deg

Mean anomaly: 101.3218 deg

Mean motion: 14.76711045 rev/day

Mean motion (dot): 0.00001132 rev/day2

B* drag term: 0.00015497 1/REarth

Two-line elements (TLE)

Creation date: May 12, 2025, 2:31 a.m.

Reference frame: TEME

Reference center: EARTH

Epoch: May 11, 2025, 6:49 p.m. UTC

TLE line 0: 0 USA 56

TLE line 1: 1 20560U 90031A 25131.78457676 .00001132 00000-0 15497-3 0 9994

TLE line 2: 2 20560 89.8502 268.3241 0059471 258.1331 101.3218 14.76711045 53440

Live tracking on map

Real-time ground track for satellite USA 56.

In-orbit conjunctions

There are no conjunctions computed for USA 56, at the moment. Check back to stay up to date, as we update our databases every day.

Go to all conjunctions

Associated space launch

POGS & SSR was a satellite designed to measure the Earth's magnetic field. TEX and SCE studied ionospheric effects on RF transmissions.

USA 56 was lifted into orbit during the mission ‘Atlas E Altair | POGS & SSR, TEX, SCE’, on board a Atlas E Altair space rocket.

The launch took place on April 11, 1990, 3 p.m. from Space Launch Complex 3W.

For more information about the launch, click the button.

Launch to space Atlas E Altair | POGS & SSR, TEX, SCE
Atlas E Altair | POGS & SSR, TEX, SCE

Agency: N/A

Status: Launch Successful

Launch date: April 11, 1990, 3 p.m. UTC

Rocket: Atlas E Altair

Launch pad: Space Launch Complex 3W

Location: Vandenberg SFB, CA, USA

...

Latest news about this satellite

There are no fresh news available about this satellite. Check back as we update our databases every day.


Newsletter sign-up

Weekly statistics, charts and insights to help you stay on top of the space industry.